CAPE
0 0 20 0 14 12 0 16 163 117 169 533 438 401 382 568 503 526 619 610 494 407 406 375 242 305 333 292 282 424 802 749 642 785 752 770 712 1005 785 99 68 535 480 247
0 0 0 5 9 13 3 15 17 77 292 420 557 379 429 207 676 599 653 651 595 486 467 428 410 518 422 403 601 678 896 887 795 816 383 827 927 1060 1254 993 890 1003 951 859
0 0 0 1 2 1 7 53 24 57 55 242 102 197 477 82 619 667 646 711 669 562 486 505 556 573 546 685 896 972 1315 1059 1116 906 857 937 1047 1047 1014 1255 1265 1365 1048 1172
0 0 0 2 11 1 1 3 55 111 97 167 160 66 47 165 233 385 663 709 678 620 523 543 559 589 605 475 900 862 1389 1285 1293 1139 583 5 550 624 755 407 1065 1264 1301 1648
0 0 0 0 6 0 14 0 8 103 39 77 234 88 193 271 292 492 429 378 669 616 578 583 564 622 696 579 649 1074 1134 1380 1486 1321 549 100 311 379 733 381 353 300 945 820
0 0 0 0 0 0 1 2 3 11 6 7 44 85 201 89 47 400 592 457 721 655 564 643 634 660 740 621 507 311 1025 304 1395 1551 1030 490 526 439 581 379 218 719 698 568
0 0 0 0 0 0 1 7 0 1 13 2 20 95 65 57 261 113 32 343 635 606 714 707 711 686 747 678 961 557 447 1322 1514 1460 976 820 463 655 521 119 609 533 458 415
0 0 0 0 0 0 0 0 0 0 0 0 67 27 59 116 185 155 54 25 143 592 717 777 726 699 725 749 1294 1529 1696 1863 1647 1622 1226 636 975 942 723 688 703 522 444 384
0 0 0 0 0 0 0 0 0 0 0 0 30 17 27 112 127 226 156 59 262 441 725 749 823 739 689 830 1568 1986 2021 1951 1794 1699 1518 1009 862 797 714 685 610 500 412 324
0 0 0 0 0 0 0 0 0 0 0 0 0 24 22 36 76 248 202 395 124 328 372 494 735 1059 1816 1858 1982 2181 2120 1847 1673 1616 1329 679 632 655 594 408 255 122 83 40
0 0 0 0 0 0 0 0 0 0 0 0 0 0 17 16 181 230 82 343 348 573 524 640 904 1924 2107 2115 2261 1958 1709 1518 1178 849 675 510 433 365 214 25 11 3 0 0
0 0 0 0 0 0 0 0 0 0 0 0 0 0 232 124 197 107 557 579 578 690 729 853 1643 1785 2008 1971 1831 1794 1602 1322 863 711 939 526 284 77 0 0 0 0 0 0
0 0 0 0 0 0 0 0 0 0 0 0 0 0 416 219 103 49 354 902 936 936 1093 1464 1610 1758 1820 1830 1782 1545 1293 982 660 709 367 196 1 0 0 0 0 0 0 0
0 0 0 0 0 0 0 0 0 0 0 0 0 0 380 208 78 52 422 1415 1365 1435 1514 1510 1560 1692 1699 1737 1474 1303 1269 794 613 478 310 21 0 0 0 0 0 0 0 0
0 0 0 0 0 0 0 0 0 0 0 0 0 0 375 226 77 59 995 1721 1641 1580 1626 1610 1701 1753 1716 1617 1424 1400 1188 505 485 325 26 0 0 0 0 0 0 0 0 0
23 3 0 0 0 0 0 0 0 0 0 0 0 6 371 385 112 108 1623 1757 1737 1729 1728 1821 1863 1833 1710 1573 1508 1400 561 477 249 0 0 0 0 0 0 0 0 0 0 0
83 66 0 0 0 0 0 0 0 0 0 0 0 0 14 330 30 99 1530 1800 1859 1871 1906 1899 1861 1799 1652 1590 1371 978 423 315 64 13 0 0 0 0 0 0 0 0 0 0
70 158 27 0 0 0 0 0 0 0 0 158 153 58 1 251 65 44 262 1719 1841 1918 1952 1879 1795 1702 1689 1686 1358 800 324 249 100 20 1 0 0 0 0 0 0 0 0 0
89 271 147 2 0 0 0 1 46 73 78 353 161 194 106 27 35 67 203 1421 1702 1795 1790 1715 1693 1618 1715 1718 1204 673 463 315 137 51 0 0 0 0 0 0 0 0 0 0
50 208 95 52 49 0 23 182 438 200 195 369 324 532 1216 363 129 226 261 861 1733 1780 1743 1707 1695 1703 1748 1607 1122 663 528 334 163 0 0 0 0 0 0 0 0 0 0 0
147 98 48 48 32 0 39 260 617 353 489 416 509 666 926 1091 510 582 611 1457 1670 1856 1865 1553 1326 1444 1312 1346 1062 654 536 387 21 0 0 0 0 0 0 0 0 0 0 0
319 188 77 10 1 24 30 226 431 473 279 480 527 598 1158 1243 1159 1358 1486 1617 1773 1924 1802 1080 1001 1029 1344 991 740 624 547 119 0 0 0 0 0 0 0 0 0 0 0 0
332 150 89 168 148 88 77 125 331 284 222 443 587 683 1001 1030 797 1532 1711 1737 1836 1758 1011 810 939 1153 1123 874 836 614 228 0 1 0 0 0 0 0 0 0 0 0 0 0
100 182 102 68 167 66 132 55 19 174 194 449 359 1043 1543 1273 1081 1550 1941 1921 1380 1014 1015 963 1074 1249 1124 1038 1049 932 291 1 0 0 0 0 0 0 0 0 0 0 0 0
2 220 96 66 98 84 197 37 41 58 49 93 365 360 1585 1505 1212 1415 1312 1192 639 789 926 981 1127 1255 1232 1123 1063 737 154 0 0 0 0 0 0 0 0 0 0 0 0 0
21 0 44 4 51 243 136 136 106 66 114 32 212 313 313 493 1213 1619 1478 1387 1035 991 1054 1214 1448 1372 1162 1022 768 362 22 0 0 0 0 0 0 0 0 0 0 0 0 0
CIN
0 0 -134 -12 -120 -111 0 -43 -142 -199 -217 -217 -229 -59 -83 -139 -131 -120 -110 -84 -54 -25 -29 -35 -46 -45 -47 -26 -33 -98 -106 -87 -138 -105 -86 -61 -56 -78 -48 -25 -21 -38 -31 -76
0 0 0 -151 -127 -149 -102 -56 -55 -105 -160 -114 -183 -158 -44 -90 -169 -182 -154 -110 -76 -38 -36 -76 -57 -58 -51 -66 -179 -162 -120 -79 -45 -54 -84 -128 -82 -66 -38 -31 -47 -20 -28 -18
0 0 0 -68 -187 -227 -214 -26 -41 -31 -112 -82 -248 -172 -96 -44 -141 -118 -109 -62 -66 -50 -41 -78 -105 -104 -65 -221 -163 -134 -174 -99 -71 -80 -31 -28 -40 -60 -45 -35 -35 -39 -59 -33
0 0 0 -123 -116 -119 -141 -165 -37 -5 -42 -93 -194 -89 -256 -111 -52 -98 -61 -30 -55 -47 -50 -56 -212 -220 -132 -44 -122 -154 -130 -78 -137 -85 -61 -16 -102 -60 -56 -90 -55 -58 -34 -7
0 0 0 0 -84 0 -110 -3 -43 -93 -1 -4 -187 -86 -128 -129 -99 -324 -80 -340 -116 -95 -98 -63 -63 -239 -143 -68 -119 -114 -83 -66 -61 -57 -42 -30 -158 -85 -75 -85 -38 -70 -52 -46
0 0 0 0 0 0 -97 -4 -9 -4 -16 -11 -6 -38 -109 -62 -66 -313 -114 -103 -113 -117 -195 -97 -53 -210 -147 -93 -52 -55 -68 -28 -57 -27 -15 -28 -36 -47 -50 -64 -79 -41 -47 -52
0 0 0 0 0 -39 -155 -2 0 -4 -3 -2 -26 -33 -16 -59 -460 -413 -210 -186 -131 -155 -355 -135 -96 -104 -118 -30 -79 -79 -129 -160 -70 -42 -35 -25 -66 -77 -52 -102 -37 -60 -66 -63
0 0 0 0 0 0 -2 -1 -1 0 0 0 -45 -28 -52 -243 -385 -206 -462 -527 -497 -233 -153 -352 -107 -46 -72 -80 -115 -236 -167 -78 -45 -20 -5 -20 -49 -27 -37 -30 -22 -30 -41 -32
0 0 0 0 0 0 0 0 0 0 0 0 -62 -180 -58 -295 -333 -411 -328 -351 -467 -239 -177 -149 -224 -116 -110 -155 -223 -143 -79 -43 -35 -1 0 -5 -34 -26 -15 -9 -12 -17 -28 -37
0 0 0 0 0 0 0 0 0 0 0 0 0 -146 -73 -224 -113 -327 -224 -95 -156 -276 -142 -102 -128 -334 -231 -252 -197 -68 -25 -39 -19 -1 -3 -64 -78 -67 -59 -93 -129 -189 -195 -222
0 0 0 0 0 0 0 0 0 0 0 0 0 0 -220 -175 -103 -162 -81 -59 -115 -435 -397 -146 -187 -211 -180 -143 -93 -73 -59 -52 -92 -83 -119 -162 -156 -160 -214 -369 -105 -93 0 0
0 0 0 0 0 0 0 0 0 0 0 0 0 0 -115 -60 -99 -220 -52 -49 -119 -389 -319 -150 -354 -194 -144 -136 -112 -71 -59 -71 -168 -138 -57 -126 -202 -318 0 0 0 0 0 0
0 0 0 0 0 0 0 0 0 0 0 0 0 0 -97 -124 -137 -87 -43 -339 -133 -374 -423 -372 -318 -206 -148 -146 -100 -117 -129 -180 -227 -137 -203 -246 -45 0 0 0 0 0 0 0
0 0 0 0 0 0 0 0 0 0 0 0 0 0 -159 -210 -39 -44 -84 -205 -332 -398 -407 -372 -282 -194 -184 -147 -165 -175 -133 -222 -225 -216 -222 -267 0 0 0 0 0 0 0 0
0 0 0 0 0 0 0 0 0 0 0 0 0 0 -177 -181 -110 -40 -299 -248 -262 -306 -318 -285 -139 -84 -81 -106 -145 -172 -144 -308 -239 -243 -321 0 0 0 0 0 0 0 0 0
-62 -61 0 0 0 0 0 0 0 0 0 0 0 -131 -177 -106 -174 -276 -188 -195 -211 -248 -236 -161 -114 -86 -63 -114 -148 -149 -358 -295 -299 0 0 0 0 0 0 0 0 0 0 0
-47 -59 -6 0 0 0 0 0 0 0 0 0 0 0 -235 -129 -97 -87 -198 -162 -146 -166 -174 -125 -126 -95 -60 -169 -173 -199 -369 -308 -357 -443 -85 0 0 0 0 0 0 0 0 0
-47 -25 -58 0 0 0 0 0 0 0 0 -140 -148 -73 -159 -131 -94 -46 -242 -149 -155 -144 -152 -145 -157 -72 -181 -99 -96 -209 -356 -305 -194 -367 -284 0 0 0 0 0 0 0 0 0
-33 -45 -30 -42 0 0 0 -13 -90 -56 -86 -198 -133 -207 -265 -302 -300 -458 -330 -245 -185 -146 -165 -129 -282 -53 -105 -84 -169 -184 -244 -222 -213 -291 0 0 0 0 0 0 0 0 0 0
-18 -39 -31 -25 -26 0 -146 -116 -141 -124 -69 -234 -229 -310 -363 -380 -333 -353 -277 -203 -194 -174 -184 -175 -71 -75 -92 -85 -185 -190 -224 -216 -233 0 0 0 0 0 0 0 0 0 0 0
-41 -30 -13 -6 -7 0 -151 -145 -86 -47 -201 -47 -187 -336 -274 -228 -261 -331 -396 -304 -234 -182 -90 -105 -60 -40 -91 -120 -161 -247 -233 -212 -264 0 0 0 0 0 0 0 0 0 0 0
-29 -51 -25 -70 -5 -55 -107 -80 -92 -79 -120 -190 -146 -283 -223 -202 -139 -227 -326 -248 -173 -136 -108 -179 -101 -53 -81 -144 -256 -254 -224 -349 0 0 0 0 0 0 0 0 0 0 0 0
-38 -76 -70 -90 -113 -58 -280 -334 -74 -77 -57 -137 -169 -330 -218 -120 -165 -200 -195 -153 -111 -105 -376 -355 -329 -152 -121 -185 -193 -213 -283 -20 -103 0 0 0 0 0 0 0 0 0 0 0
-25 -37 -41 -46 -52 -73 -312 -38 -85 -46 -65 -102 -223 -147 -86 -69 -366 -110 -62 -55 -129 -346 -321 -319 -217 -157 -113 -122 -123 -82 -208 -125 0 0 0 0 0 0 0 0 0 0 0 0
-15 -97 -76 -26 -95 -113 -292 -75 -92 -169 -47 -34 -97 -174 -91 -76 -69 -120 -87 -115 -502 -526 -353 -229 -211 -153 -144 -104 -106 -99 -223 0 0 0 0 0 0 0 0 0 0 0 0 0
-40 0 -57 -33 -158 -133 -184 -279 -362 -351 -310 -21 -25 -17 -298 -311 -77 -22 -31 -47 -51 -377 -313 -179 -121 -108 -98 -104 -132 -171 -267 0 0 0 0 0 0 0 0 0 0 0 0 0
Wind_Speed
nan nan nan nan nan nan nan nan 18 24 25 3 20 16 5 11 25 22 24 25 25 23 19 25 24 20 4 18 7 16 18 18 18 17 15 11 7 11 8 nan nan 8 8 11
nan nan nan nan nan nan nan nan nan nan 29 15 12 17 16 15 20 39 44 18 26 18 23 21 20 22 14 15 7 8 24 21 18 13 15 13 13 14 13 12 7 9 8 7
nan nan nan nan nan nan nan nan nan nan nan 20 24 6 12 nan 34 29 34 11 15 21 23 21 28 31 33 26 19 15 21 24 25 21 16 13 8 11 16 10 2 11 11 8
nan nan nan nan nan nan nan nan nan 9 nan 22 30 nan nan 27 25 28 39 12 4 11 19 18 27 30 29 22 16 15 18 23 25 26 21 nan 9 3 4 8 6 11 7 4
nan nan nan nan nan nan nan nan nan 21 nan nan 27 nan 16 20 28 38 47 27 14 12 21 17 23 25 24 16 18 20 21 21 22 26 22 21 22 18 14 17 19 14 6 3
nan nan nan nan nan nan nan nan nan nan nan nan nan nan 15 nan nan 37 37 19 18 17 16 14 18 15 20 18 15 18 22 21 22 20 21 23 22 22 15 13 12 10 6 5
nan nan nan nan nan nan nan nan nan nan nan nan nan nan nan nan 27 38 nan 46 29 18 15 12 13 14 18 18 17 20 23 21 22 21 20 21 21 17 17 17 14 15 11 8
nan nan nan nan nan nan nan nan nan nan nan nan nan nan nan 14 24 28 nan nan 17 22 22 14 12 15 15 15 17 19 25 25 23 21 20 20 21 18 15 15 17 16 15 14
nan nan nan nan nan nan nan nan nan nan nan nan nan nan nan 17 12 15 23 nan 25 18 17 14 10 10 12 14 17 23 24 22 22 21 20 21 21 20 19 18 17 15 15 14
nan nan nan nan nan nan nan nan nan nan nan nan nan nan nan nan nan 16 17 23 20 18 18 18 14 10 13 18 21 23 23 22 20 19 17 19 20 19 20 20 21 19 nan nan
nan nan nan nan nan nan nan nan nan nan nan nan nan nan nan nan 22 18 nan 25 17 28 27 23 20 18 15 18 23 25 24 25 25 23 22 22 20 22 22 nan nan nan nan nan
nan nan nan nan nan nan nan nan nan nan nan nan nan nan 20 20 21 18 12 16 27 29 26 21 23 22 19 22 23 25 23 24 22 22 24 26 25 nan nan nan nan nan nan nan
nan nan nan nan nan nan nan nan nan nan nan nan nan nan 24 23 14 nan 22 25 32 22 19 23 24 19 19 23 22 20 21 23 25 26 25 23 nan nan nan nan nan nan nan nan
nan nan nan nan nan nan nan nan nan nan nan nan nan nan 25 16 nan nan 20 32 30 19 21 25 25 21 21 24 24 24 23 27 27 25 24 nan nan nan nan nan nan nan nan nan
nan nan nan nan nan nan nan nan nan nan nan nan nan nan 16 15 nan nan 23 32 31 29 30 36 25 22 24 25 25 28 28 26 28 27 nan nan nan nan nan nan nan nan nan nan
nan nan nan nan nan nan nan nan nan nan nan nan nan nan 16 19 36 30 33 40 39 38 30 35 32 34 31 29 29 32 31 31 32 nan nan nan nan nan nan nan nan nan nan nan
nan nan nan nan nan nan nan nan nan nan nan nan nan nan nan 24 nan nan 35 42 41 39 41 38 46 38 28 29 29 34 34 34 nan nan nan nan nan nan nan nan nan nan nan nan
nan 41 nan nan nan nan nan nan nan nan nan 37 24 nan nan 18 nan nan 32 39 41 42 44 42 35 35 32 30 29 34 36 35 33 nan nan nan nan nan nan nan nan nan nan nan
nan 36 29 nan nan nan nan nan nan nan nan 54 47 38 23 nan nan nan 46 36 38 39 37 38 44 39 41 37 35 37 36 36 36 nan nan nan nan nan nan nan nan nan nan nan
nan 48 nan nan nan nan nan 43 48 41 45 60 57 52 36 45 45 28 36 37 32 39 41 47 46 39 41 41 40 40 38 35 33 nan nan nan nan nan nan nan nan nan nan nan
48 nan nan nan nan nan nan 38 33 44 34 43 59 52 39 28 28 27 44 51 50 54 53 43 33 28 27 32 34 38 36 33 nan nan nan nan nan nan nan nan nan nan nan nan
49 48 nan nan nan nan nan 36 41 31 29 30 39 39 34 28 43 42 45 55 60 60 58 58 43 20 17 19 30 34 36 30 nan nan nan nan nan nan nan nan nan nan nan nan
51 49 nan 45 41 nan nan 33 33 36 29 36 40 35 40 43 47 48 49 52 51 51 46 56 55 58 22 20 31 35 34 nan nan nan nan nan nan nan nan nan nan nan nan nan
46 46 46 nan 46 nan 34 nan nan 41 39 35 40 43 49 49 46 44 50 45 40 44 34 43 41 42 33 25 34 31 32 nan nan nan nan nan nan nan nan nan nan nan nan nan
nan 48 nan nan nan nan 42 nan nan nan nan nan 49 41 44 44 41 36 39 29 34 45 30 24 29 25 25 26 30 32 36 nan nan nan nan nan nan nan nan nan nan nan nan nan
nan nan nan nan nan 38 34 46 44 nan 45 nan 39 49 54 32 38 37 30 29 31 42 42 31 25 31 19 26 38 37 nan nan nan nan nan nan nan nan nan nan nan nan nan nan
Wind_Direction
nan nan nan nan nan nan nan nan 347 317 340 240 16 10 30 348 350 356 355 344 0 17 24 12 20 19 61 19 328 326 324 326 312 311 297 275 282 292 291 nan nan 335 338 348
nan nan nan nan nan nan nan nan nan nan 338 329 18 34 357 329 2 354 339 349 358 354 11 7 27 36 16 0 357 311 315 316 315 320 304 292 290 295 266 255 281 305 323 357
nan nan nan nan nan nan nan nan nan nan nan 333 325 2 358 nan 355 352 350 313 9 356 38 46 25 35 52 57 44 25 12 358 6 346 292 257 284 308 267 279 310 347 344 308
nan nan nan nan nan nan nan nan nan 4 nan 349 346 nan nan 339 344 339 360 242 273 29 36 46 35 35 35 48 36 20 25 27 32 26 27 nan 352 3 5 342 341 315 308 292
nan nan nan nan nan nan nan nan nan 337 nan nan 349 nan 357 342 340 343 349 338 342 7 20 42 45 33 34 29 27 12 16 25 36 29 29 23 35 45 38 35 44 78 67 350
nan nan nan nan nan nan nan nan nan nan nan nan nan nan 332 nan nan 333 339 359 336 322 354 18 57 45 33 26 0 356 355 11 6 17 23 23 16 27 22 16 12 14 349 332
nan nan nan nan nan nan nan nan nan nan nan nan nan nan nan nan 341 335 nan 352 359 314 308 346 12 53 46 18 357 344 344 343 337 340 355 359 6 16 10 8 357 344 336 330
nan nan nan nan nan nan nan nan nan nan nan nan nan nan nan 339 317 332 nan nan 347 316 307 330 343 15 45 11 352 343 334 328 332 329 335 342 341 348 343 342 339 336 333 330
nan nan nan nan nan nan nan nan nan nan nan nan nan nan nan 297 316 2 354 nan 340 314 318 324 356 31 14 2 342 326 329 331 327 325 331 329 332 331 329 329 325 328 319 311
nan nan nan nan nan nan nan nan nan nan nan nan nan nan nan nan nan 12 7 14 338 321 324 327 341 348 345 332 317 313 321 326 331 329 324 321 328 325 320 322 328 320 nan nan
nan nan nan nan nan nan nan nan nan nan nan nan nan nan nan nan 344 3 nan 354 3 332 334 332 325 334 321 315 314 315 316 314 315 318 313 309 314 315 315 nan nan nan nan nan
nan nan nan nan nan nan nan nan nan nan nan nan nan nan 257 327 321 324 339 326 327 323 321 316 310 319 316 313 312 309 308 306 309 307 300 299 298 nan nan nan nan nan nan nan
nan nan nan nan nan nan nan nan nan nan nan nan nan nan 251 266 275 nan 306 304 314 318 330 320 307 314 311 306 303 305 308 301 306 310 305 300 nan nan nan nan nan nan nan nan
nan nan nan nan nan nan nan nan nan nan nan nan nan nan 243 266 nan nan 289 306 318 321 331 337 336 319 306 306 299 297 308 311 309 309 309 nan nan nan nan nan nan nan nan nan
nan nan nan nan nan nan nan nan nan nan nan nan nan nan 253 293 nan nan 285 303 313 323 324 332 334 320 306 302 294 296 299 301 307 310 nan nan nan nan nan nan nan nan nan nan
nan nan nan nan nan nan nan nan nan nan nan nan nan nan 320 299 270 282 301 312 320 328 324 317 318 312 311 308 304 295 292 299 303 nan nan nan nan nan nan nan nan nan nan nan
nan nan nan nan nan nan nan nan nan nan nan nan nan nan nan 273 nan nan 297 312 309 311 308 313 321 309 294 297 297 293 296 298 nan nan nan nan nan nan nan nan nan nan nan nan
nan 229 nan nan nan nan nan nan nan nan nan 225 210 nan nan 287 nan nan 290 293 301 307 314 317 318 311 292 282 288 288 294 301 310 nan nan nan nan nan nan nan nan nan nan nan
nan 240 229 nan nan nan nan nan nan nan nan 223 215 210 231 nan nan nan 262 272 305 316 306 301 293 294 300 287 284 287 292 301 303 nan nan nan nan nan nan nan nan nan nan nan
nan 237 nan nan nan nan nan 200 205 233 240 218 216 220 233 259 256 254 277 269 291 289 291 292 292 292 298 285 285 288 295 303 305 nan nan nan nan nan nan nan nan nan nan nan
217 nan nan nan nan nan nan 193 199 223 219 212 220 222 232 244 247 251 260 257 261 268 269 265 243 239 263 272 284 290 297 304 nan nan nan nan nan nan nan nan nan nan nan nan
218 221 nan nan nan nan nan 206 216 209 217 210 207 211 227 224 253 261 266 265 268 276 278 283 278 256 253 275 283 291 300 295 nan nan nan nan nan nan nan nan nan nan nan nan
220 230 nan 234 244 nan nan 228 229 223 229 222 213 222 232 238 258 269 276 276 276 283 286 293 296 302 276 284 287 289 297 nan nan nan nan nan nan nan nan nan nan nan nan nan
218 231 233 nan 236 nan 228 nan nan 228 236 236 227 234 232 241 248 255 266 272 269 264 269 286 286 284 272 265 271 281 296 nan nan nan nan nan nan nan nan nan nan nan nan nan
nan 231 nan nan nan nan 227 nan nan nan nan nan 237 230 239 245 243 244 245 259 273 282 299 315 308 281 290 267 269 292 294 nan nan nan nan nan nan nan nan nan nan nan nan nan
nan nan nan nan nan 241 237 231 229 nan 216 nan 258 241 253 244 229 235 241 262 274 282 289 276 277 275 275 279 284 290 nan nan nan nan nan nan nan nan nan nan nan nan nan nan